FW1219 Weather Reports


time (UTC)temp
C
wind
direction
speed
KPH
gust
KPH
rain 1hr
cm
rain 24hr
cm
rain mn
cm
humidity
%
barometer
mb
20190624163015 22 270 11.3 14.5 0.00 0.00 0.00 70 1012.5
20190624162512 22 248 9.7 11.3 0.00 0.00 0.00 71 1012.2
20190624162017 22 315 9.7 6.4 0.00 0.00 0.00 73 1012.2
20190624161511 22 270 11.3 14.5 0.00 0.00 0.00 70 1012.2
20190624161012 22 203 11.3 6.4 0.00 0.00 0.00 72 1012.5
20190624160513 22 270 11.3 12.9 0.00 0.00 0.00 71 1012.2
20190624160014 22 270 9.7 14.5 0.00 0.00 0.00 71 1012.5
20190624155513 21 180 9.7 14.5 0.00 0.00 0.00 74 1012.2
20190624155015 21 270 11.3 14.5 0.00 0.03 0.00 75 1012.2
20190624154510 21 270 9.7 8.0 0.00 0.03 0.00 76 1012.2
20190624154013 21 203 11.3 6.4 0.00 0.03 0.00 75 1012.2
20190624153511 21 248 9.7 14.5 0.00 0.03 0.00 75 1012.2
20190624153013 21 270 11.3 14.5 0.00 0.05 0.00 75 1012.2
20190624152510 21 293 11.3 11.3 0.00 0.05 0.00 76 1012.2
20190624152014 21 270 11.3 8.0 0.00 0.05 0.00 77 1011.9
20190624151511 20 270 12.9 11.3 0.00 0.08 0.00 78 1011.9
20190624151014 20 225 12.9 14.5 0.00 0.10 0.00 79 1011.9
20190624150509 21 270 9.7 11.3 0.00 0.10 0.00 79 1011.9
20190624150014 20 23 12.9 14.5 0.00 0.15 0.00 79 1011.9
20190624145510 20 270 12.9 12.9 0.00 0.20 0.00 80 1012.2
20190624145008 20 270 11.3 12.9 0.00 0.20 0.00 81 1011.9
20190624144512 20 180 11.3 11.3 0.00 0.25 0.00 80 1011.9
20190624144012 20 270 9.7 14.5 0.00 0.25 0.00 83 1011.5
20190624143510 20 270 6.4 9.7 0.00 0.30 0.00 81 1011.5
20190624143012 20 225 11.3 9.7 0.00 0.36 0.00 84 1011.9
20190624142510 20 270 11.3 14.5 0.00 0.36 0.00 83 1011.9
20190624142015 20 270 12.9 11.3 0.00 0.38 0.00 85 1011.9
20190624141512 19 270 11.3 20.9 0.00 0.41 0.00 86 1011.5
20190624141010 20 225 11.3 8.0 0.00 0.46 0.00 85 1011.5
20190624140512 20 270 11.3 9.7 0.00 0.48 0.00 86 1011.5
20190624140011 20 293 9.7 4.8 0.00 0.56 0.00 85 1011.5
20190624135510 19 270 8.0 6.4 0.00 0.66 0.00 88 1011.2
20190624135013 18 270 9.7 9.7 0.00 0.76 0.00 87 1011.2
20190624134512 18 270 11.3 12.9 0.00 0.86 0.00 90 1011.2
20190624134011 18 270 12.9 14.5 0.00 0.89 0.00 91 1011.2
20190624133510 18 270 14.5 16.1 0.00 0.94 0.00 91 1011.2
20190624133013 18 270 11.3 14.5 0.00 0.97 0.00 92 1010.8
20190624132512 18 248 14.5 11.3 0.00 1.02 0.00 92 1010.8
20190624132013 17 270 12.9 8.0 0.00 1.12 0.00 92 1010.8
20190624131512 17 270 12.9 16.1 0.00 1.12 0.00 93 1010.8
20190624131011 18 270 9.7 14.5 0.00 1.14 0.00 94 1010.8
20190624130512 18 270 9.7 11.3 0.00 1.17 0.00 93 1010.8
20190624130011 17 203 11.3 11.3 0.00 1.22 0.00 94 1010.8
20190624125514 18 270 9.7 9.7 0.00 1.22 0.00 94 1010.5
20190624125014 17 270 11.3 14.5 0.00 1.24 0.00 94 1010.8
20190624124518 18 180 9.7 6.4 0.00 1.24 0.00 94 1010.8
20190624124014 17 270 9.7 17.7 0.00 1.24 0.00 94 1010.8
20190624123514 17 248 9.7 11.3 0.00 1.27 0.00 95 1010.8
20190624123015 17 270 8.0 9.7 0.00 1.27 0.00 96 1010.5
20190624122513 17 270 6.4 4.8 0.00 1.27 0.00 96 1010.5
20190624122016 17 270 6.4 6.4 0.00 1.27 0.00 96 1010.5
20190624121510 17 338 9.7 12.9 0.00 1.32 0.00 96 1010.5
20190624121013 17 248 9.7 11.3 0.00 1.35 0.00 96 1010.5
20190624120510 17 203 9.7 11.3 0.00 1.35 0.00 96 1010.2
20190624120012 17 270 8.0 8.0 0.00 1.35 0.00 96 1010.2
20190624115512 17 270 8.0 8.0 0.00 1.35 0.00 96 1010.2
20190624115014 17 203 8.0 6.4 0.00 1.35 0.00 96 1010.2
20190624114511 17 270 8.0 9.7 0.00 1.35 0.00 96 1010.2
20190624114014 16 270 8.0 8.0 0.00 1.35 0.00 96 1010.2
20190624113511 16 270 9.7 9.7 0.00 1.35 0.00 96 1010.2
20190624113012 16 270 8.0 9.7 0.00 1.35 0.00 96 1010.2
20190624112513 16 338 8.0 8.0 0.00 1.35 0.00 96 1010.2
20190624112013 16 158 8.0 6.4 0.00 1.35 0.00 96 1010.2
20190624111514 16 158 8.0 6.4 0.00 1.35 0.00 96 1009.8
20190624111013 16 270 8.0 9.7 0.00 1.35 0.00 96 1009.8
20190624110510 16 293 6.4 6.4 0.00 1.35 0.00 96 1009.8
20190624110017 16 203 6.4 4.8 0.00 1.35 0.00 96 1009.8
20190624105513 16 203 6.4 8.0 0.00 1.35 0.00 96 1009.8
20190624105013 16 225 6.4 4.8 0.00 1.35 0.00 96 1009.5
20190624104514 16 203 6.4 8.0 0.00 1.35 0.00 96 1009.5
20190624104010 16 315 6.4 8.0 0.00 1.35 0.00 96 1009.5
20190624103512 16 225 6.4 9.7 0.00 1.35 0.00 96 1009.5
20190624103010 16 0 6.4 4.8 0.00 1.35 0.00 96 1009.5
20190624102512 17 180 8.0 6.4 0.00 1.37 0.00 96 1009.5
20190624102011 17 248 8.0 11.3 0.00 1.37 0.00 96 1009.5
20190624101512 17 248 9.7 9.7 0.00 1.37 0.00 96 1009.5
20190624101012 17 158 9.7 9.7 0.00 1.37 0.00 96 1009.5
20190624100512 17 225 9.7 9.7 0.00 1.37 0.00 96 1009.5
20190624100013 17 293 8.0 6.4 0.00 1.37 0.00 96 1009.5
20190624095510 17 180 9.7 4.8 0.00 1.37 0.00 96 1009.5
20190624095009 17 270 9.7 17.7 0.00 1.37 0.00 96 1009.5
20190624094509 17 203 9.7 4.8 0.00 1.37 0.00 96 1009.1
20190624094010 17 225 12.9 9.7 0.00 1.37 0.00 96 1009.1
20190624093512 17 270 8.0 11.3 0.00 1.37 0.00 96 1009.1
20190624093009 17 248 8.0 9.7 0.00 1.37 0.00 96 1009.1
20190624092512 17 270 8.0 6.4 0.00 1.37 0.00 96 1009.1
20190624092012 17 248 8.0 11.3 0.00 1.37 0.00 96 1009.1
20190624091510 17 270 6.4 8.0 0.00 1.37 0.00 96 1008.8
20190624091011 17 225 6.4 4.8 0.00 1.37 0.00 96 1008.8
20190624090510 17 180 6.4 4.8 0.00 1.37 0.00 96 1008.8
20190624090014 17 270 6.4 11.3 0.00 1.37 0.00 96 1008.8
20190624085512 17 270 8.0 6.4 0.00 1.37 0.00 96 1008.8
20190624085014 18 270 6.4 9.7 0.00 1.37 0.00 96 1008.8
20190624084512 18 270 6.4 6.4 0.00 1.37 0.00 96 1008.8
20190624084010 18 248 6.4 8.0 0.00 1.37 0.00 95 1008.8
20190624083515 18 203 4.8 4.8 0.00 1.37 0.00 95 1008.8
20190624083010 18 293 6.4 8.0 0.00 1.37 0.00 95 1008.8
20190624082511 18 203 6.4 6.4 0.00 1.40 0.00 95 1008.8
20190624082011 18 225 4.8 8.0 0.00 1.40 0.00 95 1008.8
20190624081509 18 270 4.8 6.4 0.00 1.40 0.00 95 1008.8
20190624081012 18 180 4.8 6.4 0.00 1.40 0.00 95 1008.8
20190624080512 18 225 3.2 8.0 0.00 1.42 0.00 95 1008.5
20190624080009 18 203 4.8 3.2 0.00 1.42 0.00 95 1008.8
20190624075512 18 225 4.8 6.4 0.00 1.42 0.00 95 1008.5
20190624075010 18 180 3.2 4.8 0.00 1.47 0.00 95 1008.5
20190624074513 18 203 3.2 3.2 0.00 1.52 0.00 95 1008.8
20190624074011 18 180 1.6 3.2 0.00 1.52 0.00 95 1008.8
20190624073512 18 203 4.8 4.8 0.00 1.55 0.00 95 1008.8
20190624073009 18 225 3.2 4.8 0.00 1.60 0.00 95 1009.1
20190624072508 18 23 3.2 4.8 0.00 1.60 0.00 95 1009.1
20190624072010 18 180 3.2 3.2 0.00 1.60 0.00 95 1009.1
20190624071512 18 90 3.2 4.8 0.00 1.63 0.00 95 1009.1
20190624071010 18 113 4.8 1.6 0.00 1.68 0.00 95 1009.5
20190624070511 18 203 4.8 4.8 0.00 1.68 0.00 95 1009.5
20190624070018 18 270 6.4 6.4 0.00 1.70 0.00 95 1009.5
20190624065511 18 203 6.4 11.3 0.00 1.75 0.00 95 1009.5
20190624065013 18 315 8.0 6.4 0.00 1.88 0.00 95 1009.5
20190624064514 18 248 4.8 6.4 0.00 1.88 0.00 95 1009.5
20190624064010 18 135 3.2 0.0 0.00 1.91 0.00 95 1009.5
20190624063510 18 248 1.6 3.2 0.00 1.98 0.00 95 1009.1
20190624063010 18 90 1.6 1.6 0.00 1.98 0.00 95 1009.5
20190624062512 18 113 3.2 3.2 0.00 2.03 0.00 95 1009.5
20190624062009 18 113 3.2 3.2 0.00 2.08 0.00 95 1009.5
20190624061508 18 113 3.2 3.2 0.00 2.11 0.00 95 1009.5
20190624061011 18 135 3.2 3.2 0.00 2.16 0.00 95 1009.5
20190624060517 18 113 1.6 1.6 0.00 2.21 0.00 95 1009.5
20190624060014 18 113 1.6 1.6 0.00 2.24 0.00 95 1009.5
20190624055512 18 180 1.6 3.2 0.00 2.29 0.00 95 1009.5
20190624055009 18 203 0.0 1.6 0.00 2.29 0.00 95 1009.5
20190624054510 18 45 0.0 1.6 0.00 2.29 0.00 95 1009.5
20190624054010 18 180 0.0 1.6 0.00 2.34 0.00 95 1009.1
20190624053512 18 90 0.0 0.0 0.00 2.34 0.00 95 1009.1
20190624053012 18 225 0.0 1.6 0.00 2.39 0.00 95 1009.1
20190624052512 18 203 0.0 0.0 0.00 2.39 0.00 95 1009.1
20190624052009 18 180 0.0 0.0 0.00 2.44 0.00 95 1009.5
20190624051509 18 113 0.0 0.0 0.00 2.49 0.00 95 1009.5
20190624051011 19 90 0.0 0.0 0.00 2.49 0.00 95 1009.5
20190624050512 19 203 0.0 3.2 0.00 2.51 0.00 95 1009.5
20190624050018 19 225 0.0 0.0 0.00 2.54 0.00 95 1009.5
20190624045510 19 180 0.0 0.0 0.00 2.59 0.00 95 1009.5
20190624045012 19 68 0.0 3.2 0.00 2.64 0.00 95 1009.5
20190624044514 19 113 0.0 0.0 0.00 2.67 0.00 95 1009.1
20190624044009 19 113 0.0 0.0 0.00 2.69 0.00 95 1009.1
20190624043513 20 270 0.0 1.6 0.00 2.69 0.00 95 1008.8
20190624043016 20 158 0.0 0.0 0.00 2.72 0.00 95 1008.8
20190624042511 20 315 0.0 0.0 0.00 2.74 0.00 95 1008.8
20190624042008 20 68 0.0 0.0 0.00 2.74 0.00 95 1008.8
20190624041511 20 180 0.0 0.0 0.00 2.77 0.00 95 1008.8
20190624041013 20 203 0.0 1.6 0.00 2.77 0.00 95 1008.8
20190624040513 20 135 0.0 0.0 0.00 2.77 0.00 95 1009.1
20190624040012 20 225 0.0 0.0 0.00 2.79 0.00 95 1008.8
20190624035511 20 113 0.0 0.0 0.00 2.82 0.00 95 1009.1
20190624035013 20 180 0.0 0.0 0.00 2.82 0.00 95 1009.1
20190624034510 20 270 0.0 0.0 0.00 2.84 0.00 95 1009.1
20190624034015 20 270 0.0 1.6 0.00 2.90 0.00 95 1009.1
20190624033513 20 225 0.0 1.6 0.00 3.00 0.00 95 1009.1
20190624033010 20 135 0.0 3.2 0.00 3.00 0.00 95 1009.5
20190624032509 20 203 0.0 1.6 0.00 3.05 0.00 95 1009.5
20190624032008 20 90 0.0 1.6 0.00 3.10 0.00 95 1009.5
20190624031512 20 180 0.0 0.0 0.00 3.12 0.00 95 1009.5
20190624031010 20 113 0.0 3.2 0.00 3.25 0.00 95 1009.5
20190624030510 20 113 0.0 1.6 0.00 3.40 0.00 95 1009.5
20190624030010 20 113 0.0 1.6 0.00 3.40 0.00 95 1009.5
20190624025512 20 180 0.0 0.0 0.00 3.91 0.00 95 1009.1
20190624025016 20 135 0.0 0.0 0.00 3.91 0.00 95 1009.1
20190624024511 20 203 0.0 0.0 0.00 5.03 0.00 94 1009.1
20190624024010 20 270 0.0 0.0 0.00 5.03 0.00 94 1009.1
20190624023510 20 180 0.0 0.0 0.00 5.82 0.00 94 1009.1
20190624023015 20 293 0.0 0.0 0.00 6.05 0.00 94 1008.8
20190624022514 21 113 0.0 0.0 0.00 6.05 0.00 94 1009.1
20190624022014 21 225 0.0 0.0 0.00 6.20 0.00 94 1009.1
20190624021514 21 293 0.0 0.0 0.00 6.20 0.00 94 1009.1
20190624021011 21 158 0.0 0.0 0.00 6.25 0.00 93 1008.8
20190624020512 21 45 0.0 0.0 0.00 6.53 0.00 93 1008.8
20190624020019 21 225 0.0 0.0 0.00 6.86 0.00 93 1008.8
20190624015513 21 225 0.0 0.0 0.00 6.86 0.00 92 1008.8
20190624015015 21 158 0.0 0.0 0.00 6.86 0.00 92 1008.8
20190624014510 21 225 0.0 0.0 0.00 6.96 0.00 91 1008.8
20190624014010 22 225 0.0 0.0 0.00 6.96 0.00 91 1009.1
20190624013511 22 113 0.0 0.0 0.00 6.96 0.00 90 1009.1
20190624013018 22 135 0.0 0.0 0.00 6.96 0.00 89 1009.1
20190624012512 22 23 0.0 0.0 0.00 6.96 0.00 89 1009.1
20190624012013 22 180 0.0 0.0 0.00 6.96 0.00 89 1009.1
20190624011512 22 180 0.0 0.0 0.00 6.96 0.00 89 1009.5
20190624011009 22 158 0.0 0.0 0.00 6.96 0.00 89 1009.5
20190624010512 22 158 0.0 0.0 0.00 6.96 0.00 89 1009.1
20190624010008 22 203 0.0 0.0 0.00 6.96 0.00 88 1009.1
20190624005512 22 45 0.0 0.0 0.00 6.96 0.00 87 1009.5
20190624005011 22 45 0.0 0.0 0.00 6.96 0.00 87 1009.1
20190624004513 23 113 0.0 0.0 0.00 6.96 0.00 87 1009.1
20190624004009 23 113 0.0 0.0 0.00 6.96 0.00 87 1009.5
20190624003515 23 158 0.0 0.0 0.00 6.96 0.00 87 1009.1
20190624003010 23 158 0.0 0.0 0.00 6.96 0.00 88 1009.1
20190624002510 23 113 0.0 0.0 0.00 6.96 0.00 87 1009.1
20190624002013 23 180 0.0 1.6 0.00 6.96 0.00 87 1009.1
20190624001511 22 248 0.0 1.6 0.00 6.96 0.00 88 1009.1
20190624001010 22 270 0.0 0.0 0.00 6.96 0.00 88 1009.1
20190624000613 22 293 0.0 0.0 0.00 6.96 0.00 88 1008.8
20190623235514 22 270 3.2 4.8 0.00 6.96 0.00 87 1008.5
20190623235010 22 270 3.2 3.2 0.00 6.96 0.00 88 1008.5
20190623234513 22 270 4.8 3.2 0.00 6.96 0.00 87 1008.5
20190623234014 22 270 6.4 6.4 0.00 6.96 0.00 87 1008.5
20190623233514 22 113 4.8 4.8 0.00 6.96 0.00 86 1008.5
20190623233010 22 248 6.4 6.4 0.00 6.96 0.00 86 1008.8
20190623232511 23 270 6.4 8.0 0.00 6.96 0.00 85 1008.8
20190623232012 23 248 6.4 4.8 0.00 6.96 0.00 85 1008.8
20190623231515 23 248 6.4 8.0 0.00 6.96 0.00 86 1008.8
20190623231013 22 270 8.0 6.4 0.00 6.96 0.00 87 1008.5
20190623230512 22 270 8.0 8.0 0.00 6.96 0.00 86 1008.5
20190623230015 22 270 4.8 6.4 0.00 6.96 0.00 88 1008.8
20190623225512 22 248 8.0 6.4 0.00 6.96 0.00 87 1008.8
20190623225010 22 270 9.7 12.9 0.00 6.96 0.00 87 1008.8
20190623224512 22 293 9.7 14.5 0.00 6.96 0.00 86 1008.5
20190623224011 23 270 11.3 6.4 0.00 6.96 0.00 86 1008.5
20190623223509 22 270 9.7 12.9 0.00 6.96 0.00 86 1008.8
20190623223012 22 270 12.9 9.7 0.00 6.96 0.00 86 1008.8
20190623222511 22 270 11.3 14.5 0.00 6.96 0.00 88 1008.8
20190623222012 22 270 11.3 14.5 0.00 6.96 0.00 85 1008.8
20190623221513 22 225 9.7 11.3 0.00 6.96 0.00 86 1008.8
20190623221012 22 180 9.7 6.4 0.00 6.96 0.00 86 1009.1
20190623220511 22 248 11.3 9.7 0.00 6.96 0.00 89 1008.8
20190623220011 22 270 6.4 9.7 0.00 6.96 0.00 89 1009.1
20190623215515 22 270 8.0 9.7 0.00 6.96 0.00 90 1009.1
20190623215012 22 270 6.4 9.7 0.00 6.96 0.00 90 1009.1
20190623214516 22 180 6.4 6.4 0.00 6.96 0.00 90 1009.1
20190623214012 22 248 8.0 6.4 0.00 6.96 0.00 93 1009.1
20190623213510 21 270 6.4 8.0 0.00 6.96 0.00 93 1009.5
20190623213012 22 225 6.4 6.4 0.00 6.96 0.00 92 1009.5
20190623212511 22 270 4.8 6.4 0.00 6.96 0.00 94 1009.5
20190623212013 21 203 6.4 8.0 0.00 6.96 0.00 95 1009.5
20190623211515 20 270 9.7 9.7 0.00 6.96 0.00 96 1009.5
20190623211010 20 270 8.0 11.3 0.00 6.96 0.00 96 1009.5
20190623210510 20 203 8.0 9.7 0.00 6.96 0.00 96 1009.8
20190623210011 21 113 6.4 8.0 0.00 6.96 0.00 96 1009.8
20190623205515 21 158 4.8 8.0 0.00 6.96 0.00 96 1009.5
20190623205009 21 248 4.8 4.8 0.00 6.96 0.00 96 1009.8
20190623204514 20 180 6.4 4.8 0.00 6.96 0.00 96 1009.8
20190623204010 20 203 6.4 6.4 0.00 6.96 0.00 96 1009.8
20190623203511 20 225 6.4 9.7 0.00 6.96 0.00 96 1009.8
20190623203015 20 225 4.8 8.0 0.00 6.96 0.00 96 1009.8
20190623202515 20 270 4.8 8.0 0.00 6.96 0.00 96 1009.8
20190623202013 20 158 3.2 3.2 0.00 6.96 0.00 96 1010.2
20190623201514 20 203 3.2 8.0 0.00 6.96 0.00 96 1010.2
20190623201011 20 180 3.2 4.8 0.00 6.96 0.00 96 1010.2
20190623200515 20 203 4.8 6.4 0.00 6.96 0.00 96 1010.2
20190623200016 20 203 3.2 6.4 0.00 6.96 0.00 96 1010.2
20190623195512 20 248 3.2 4.8 0.00 6.96 0.00 96 1009.8
20190623195012 20 113 3.2 3.2 0.00 6.96 0.00 96 1009.8
20190623194510 20 248 1.6 3.2 0.00 6.96 0.00 96 1009.8
20190623194012 20 270 3.2 4.8 0.00 6.96 0.00 96 1009.8
20190623193509 20 270 1.6 3.2 0.00 6.96 0.00 96 1010.2
20190623193013 20 248 1.6 3.2 0.00 6.96 0.00 96 1009.8
20190623192514 20 158 1.6 1.6 0.00 6.96 0.00 96 1009.8
20190623192015 20 225 0.0 1.6 0.00 6.96 0.00 96 1010.2
20190623191513 20 135 1.6 1.6 0.00 6.96 0.00 96 1009.8
20190623191012 20 135 0.0 0.0 0.00 6.96 0.00 96 1010.2
20190623190514 20 158 0.0 0.0 0.00 6.96 0.00 96 1010.2
20190623190011 20 180 0.0 0.0 0.00 6.96 0.00 96 1010.2
20190623185514 20 315 0.0 3.2 0.00 6.96 0.00 96 1010.2
20190623185010 20 158 0.0 0.0 0.00 6.96 0.00 96 1010.2
20190623184514 20 158 0.0 1.6 0.00 6.96 0.00 96 1010.2
20190623184016 20 180 0.0 0.0 0.00 6.96 0.00 96 1010.2
20190623183514 19 203 0.0 0.0 0.00 6.96 0.00 96 1010.5
20190623183013 19 135 0.0 0.0 0.00 6.96 0.00 96 1010.5
20190623182510 19 135 0.0 0.0 0.00 6.96 0.00 96 1010.2
20190623182012 19 113 0.0 0.0 0.00 6.96 0.00 96 1010.2
20190623181514 19 180 0.0 1.6 0.00 6.96 0.00 96 1010.2
20190623181012 19 203 1.6 1.6 0.00 6.96 0.00 96 1010.2
20190623180512 19 225 1.6 3.2 0.00 6.96 0.00 96 1010.2
20190623180015 19 90 1.6 3.2 0.00 6.96 0.00 96 1010.2
20190623175515 18 180 3.2 3.2 0.00 6.96 0.00 96 1009.8
20190623175013 18 113 3.2 4.8 0.00 6.96 0.00 96 1010.2
20190623174515 18 113 4.8 6.4 0.00 6.96 0.00 96 1010.2
20190623174009 18 113 3.2 4.8 0.00 6.96 0.00 96 1010.2
20190623173013 18 90 4.8 8.0 0.00 6.96 0.00 96 1010.2
20190623172509 18 158 1.6 4.8 0.00 6.96 0.00 96 1010.2
20190623172010 18 90 3.2 4.8 0.00 6.96 0.00 96 1009.8
20190623171513 18 90 6.4 4.8 0.00 6.96 0.00 96 1009.1
20190623171012 18 68 9.7 8.0 0.00 6.96 0.00 96 1008.8
20190623170511 18 45 9.7 8.0 0.00 6.96 0.00 96 1008.8
20190623170017 18 113 12.9 8.0 0.00 6.96 0.00 96 1008.5
20190623165511 18 90 12.9 11.3 0.00 6.96 0.00 96 1008.1
20190623165014 18 113 16.1 14.5 0.03 6.96 0.00 96 1008.1
20190623164511 18 113 16.1 12.9 0.03 6.96 0.00 96 1008.5
20190623164012 18 135 16.1 16.1 0.03 6.96 0.00 96 1008.8
20190623163511 18 90 12.9 19.3 0.03 6.96 0.00 96 1008.8